| time (UTC) | temp F | wind direction | speed MPH | gust MPH | rain 1hr in | rain 24hr in | rain mn in | humidity % | barometer mb |
| 20260502230059 | 47 | 115 | 1.0 | 2.0 | 0.00 | 0.00 | 0.00 | 66 | 1004.7 |
| 20260502225159 | 47 | 1 | 4.0 | 6.0 | 0.00 | 0.00 | 0.00 | 66 | 1004.9 |
| 20260502224259 | 47 | 329 | 3.0 | 6.0 | 0.00 | 0.00 | 0.00 | 67 | 1004.7 |
| 20260502223359 | 47 | 332 | 3.0 | 5.0 | 0.00 | 0.00 | 0.00 | 66 | 1004.7 |
| 20260502222500 | 47 | 318 | 2.0 | 4.0 | 0.00 | 0.00 | 0.00 | 67 | 1004.5 |
| 20260502221559 | 47 | 329 | 4.0 | 7.0 | 0.00 | 0.00 | 0.00 | 66 | 1004.5 |
| 20260502220659 | 47 | 316 | 7.0 | 7.0 | 0.00 | 0.00 | 0.00 | 65 | 1004.6 |
| 20260502214900 | 47 | 327 | 2.0 | 4.0 | 0.00 | 0.00 | 0.00 | 64 | 1004.7 |
| 20260502213959 | 47 | 326 | 2.0 | 4.0 | 0.00 | 0.00 | 0.00 | 64 | 1004.6 |
| 20260502213059 | 46 | 145 | 1.0 | 3.0 | 0.00 | 0.00 | 0.00 | 63 | 1004.6 |
| 20260502212200 | 47 | 108 | 2.0 | 3.0 | 0.00 | 0.00 | 0.00 | 63 | 1004.6 |
| 20260502211259 | 47 | 300 | 1.0 | 3.0 | 0.00 | 0.00 | 0.00 | 62 | 1004.5 |
| 20260502205459 | 47 | 41 | 0.0 | 1.0 | 0.00 | 0.00 | 0.00 | 62 | 1004.8 |
| 20260502204559 | 47 | 151 | 0.0 | 1.0 | 0.00 | 0.00 | 0.00 | 62 | 1004.6 |
| 20260502203659 | 47 | 208 | 0.0 | 1.0 | 0.00 | 0.00 | 0.00 | 61 | 1004.6 |
| 20260502202759 | 48 | 103 | 1.0 | 2.0 | 0.00 | 0.00 | 0.00 | 60 | 1004.6 |
| 20260502201859 | 48 | 120 | 1.0 | 2.0 | 0.00 | 0.00 | 0.00 | 59 | 1004.6 |
| 20260502200959 | 49 | 115 | 1.0 | 1.0 | 0.00 | 0.00 | 0.00 | 56 | 1004.6 |
| 20260502200059 | 49 | 22 | 1.0 | 1.0 | 0.00 | 0.00 | 0.00 | 56 | 1004.9 |
| 20260502195159 | 50 | 306 | 1.0 | 2.0 | 0.00 | 0.00 | 0.00 | 56 | 1004.9 |
| 20260502193359 | 50 | 225 | 0.0 | 1.0 | 0.00 | 0.00 | 0.00 | 55 | 1004.8 |
| 20260502192459 | 51 | 156 | 1.0 | 2.0 | 0.00 | 0.00 | 0.00 | 54 | 1004.9 |
| 20260502191559 | 51 | 160 | 2.0 | 3.0 | 0.00 | 0.00 | 0.00 | 53 | 1004.7 |
| 20260502190659 | 51 | 288 | 1.0 | 2.0 | 0.00 | 0.00 | 0.00 | 53 | 1004.8 |
| 20260502183959 | 51 | 192 | 1.0 | 2.0 | 0.00 | 0.00 | 0.00 | 51 | 1004.8 |
| 20260502182159 | 52 | 239 | 1.0 | 2.0 | 0.00 | 0.00 | 0.00 | 50 | 1005.0 |
| 20260502181259 | 52 | 253 | 2.0 | 2.0 | 0.00 | 0.00 | 0.00 | 50 | 1004.8 |
| 20260502180359 | 52 | 262 | 2.0 | 3.0 | 0.00 | 0.00 | 0.00 | 50 | 1004.9 |
| 20260502164259 | 53 | 270 | 3.0 | 4.0 | 0.00 | 0.00 | 0.00 | 50 | 1005.5 |
| 20260502163359 | 54 | 313 | 2.0 | 3.0 | 0.00 | 0.00 | 0.00 | 49 | 1005.7 |
| 20260502162459 | 54 | 238 | 1.0 | 3.0 | 0.00 | 0.00 | 0.00 | 50 | 1005.6 |
| 20260502161559 | 54 | 229 | 2.0 | 3.0 | 0.00 | 0.00 | 0.00 | 46 | 1005.7 |
| 20260502160700 | 55 | 318 | 3.0 | 4.0 | 0.00 | 0.00 | 0.00 | 41 | 1005.9 |
| 20260502152159 | 57 | 284 | 2.0 | 6.0 | 0.00 | 0.00 | 0.00 | 34 | 1006.0 |
| 20260502151259 | 57 | 280 | 3.0 | 4.0 | 0.00 | 0.00 | 0.00 | 33 | 1006.2 |
| 20260502150359 | 57 | 244 | 5.0 | 8.0 | 0.00 | 0.00 | 0.00 | 32 | 1006.4 |
| 20260502130659 | 63 | 330 | 6.0 | 11.0 | 0.00 | 0.00 | 0.00 | 30 | 1006.3 |
| 20260502123059 | 64 | 309 | 5.0 | 11.0 | 0.00 | 0.00 | 0.00 | 24 | 1006.6 |
| 20260502122159 | 65 | 252 | 4.0 | 9.0 | 0.00 | 0.00 | 0.00 | 24 | 1006.7 |
| 20260502120359 | 63 | 258 | 3.0 | 5.0 | 0.00 | 0.00 | 0.00 | 28 | 1006.9 |
| 20260502115459 | 62 | 302 | 4.0 | 5.0 | 0.00 | 0.00 | 0.00 | 28 | 1006.8 |
| 20260502114559 | 62 | 293 | 3.0 | 4.0 | 0.00 | 0.00 | 0.00 | 28 | 1006.9 |
| 20260502113700 | 62 | 300 | 4.0 | 7.0 | 0.00 | 0.00 | 0.00 | 28 | 1007.0 |
| 20260502112759 | 62 | 314 | 5.0 | 8.0 | 0.00 | 0.00 | 0.00 | 28 | 1006.9 |
| 20260502111900 | 62 | 300 | 5.0 | 9.0 | 0.00 | 0.00 | 0.00 | 26 | 1007.0 |
| 20260502110959 | 62 | 202 | 5.0 | 8.0 | 0.00 | 0.00 | 0.00 | 28 | 1007.1 |
| 20260502110059 | 63 | 267 | 5.0 | 6.0 | 0.00 | 0.00 | 0.00 | 28 | 1007.1 |
| 20260502105159 | 63 | 249 | 5.0 | 8.0 | 0.00 | 0.00 | 0.00 | 30 | 1007.3 |
| 20260502104259 | 63 | 271 | 5.0 | 8.0 | 0.00 | 0.00 | 0.00 | 30 | 1007.3 |
| 20260502103359 | 64 | 266 | 3.0 | 6.0 | 0.00 | 0.00 | 0.00 | 26 | 1007.6 |
| 20260502101559 | 64 | 250 | 4.0 | 9.0 | 0.00 | 0.00 | 0.00 | 24 | 1007.6 |
| 20260502100659 | 65 | 155 | 5.0 | 6.0 | 0.00 | 0.00 | 0.00 | 26 | 1007.6 |
| 20260502090359 | 64 | 271 | 5.0 | 8.0 | 0.00 | 0.00 | 0.00 | 30 | 1007.7 |
| 20260502070658 | 54 | 224 | 6.0 | 8.0 | 0.00 | 0.00 | 0.00 | 38 | 1008.8 |
| 20260502050748 | 47 | 248 | 8.0 | 10.0 | 0.00 | 0.00 | 0.00 | 44 | 1009.2 |
| 20260502045849 | 46 | 235 | 6.0 | 9.0 | 0.00 | 0.00 | 0.00 | 45 | 1009.2 |
| 20260502044948 | 46 | 248 | 7.0 | 10.0 | 0.00 | 0.00 | 0.00 | 45 | 1009.4 |
| 20260502044049 | 46 | 223 | 6.0 | 8.0 | 0.00 | 0.00 | 0.00 | 46 | 1009.3 |
| 20260502041349 | 45 | 249 | 3.0 | 4.0 | 0.00 | 0.00 | 0.00 | 53 | 1009.6 |
| 20260502040448 | 45 | 230 | 2.0 | 4.0 | 0.00 | 0.00 | 0.00 | 54 | 1009.7 |
| 20260502035548 | 45 | 263 | 3.0 | 4.0 | 0.00 | 0.00 | 0.00 | 54 | 1009.8 |
| 20260502034648 | 45 | 264 | 4.0 | 5.0 | 0.00 | 0.00 | 0.00 | 53 | 1009.7 |
| 20260502033748 | 45 | 234 | 4.0 | 4.0 | 0.00 | 0.00 | 0.00 | 54 | 1010.0 |
| 20260502032848 | 45 | 231 | 4.0 | 5.0 | 0.00 | 0.00 | 0.00 | 54 | 1010.0 |
| 20260502031048 | 46 | 254 | 6.0 | 9.0 | 0.00 | 0.00 | 0.00 | 50 | 1010.3 |
| 20260502030149 | 45 | 269 | 3.0 | 6.0 | 0.00 | 0.00 | 0.00 | 54 | 1010.4 |
| 20260502025248 | 46 | 256 | 2.0 | 4.0 | 0.00 | 0.00 | 0.00 | 50 | 1010.4 |
| 20260502022548 | 47 | 267 | 3.0 | 5.0 | 0.00 | 0.00 | 0.00 | 47 | 1010.8 |
| 20260502021649 | 47 | 248 | 5.0 | 7.0 | 0.00 | 0.00 | 0.00 | 46 | 1010.9 |
| 20260502020748 | 48 | 235 | 5.0 | 6.0 | 0.00 | 0.00 | 0.00 | 45 | 1011.0 |
| 20260502015848 | 48 | 233 | 6.0 | 8.0 | 0.00 | 0.00 | 0.00 | 45 | 1010.9 |
| 20260502014949 | 48 | 251 | 6.0 | 8.0 | 0.00 | 0.00 | 0.00 | 44 | 1011.1 |
| 20260502014048 | 49 | 227 | 6.0 | 8.0 | 0.00 | 0.00 | 0.00 | 44 | 1011.3 |
| 20260502013148 | 49 | 266 | 7.0 | 9.0 | 0.00 | 0.00 | 0.00 | 43 | 1011.4 |
| 20260502012248 | 49 | 285 | 9.0 | 11.0 | 0.00 | 0.00 | 0.00 | 43 | 1011.6 |
| 20260502011348 | 50 | 273 | 8.0 | 11.0 | 0.00 | 0.00 | 0.00 | 42 | 1011.4 |
| 20260502010448 | 50 | 279 | 7.0 | 10.0 | 0.00 | 0.00 | 0.00 | 41 | 1011.5 |
| 20260502005548 | 50 | 273 | 9.0 | 10.0 | 0.00 | 0.00 | 0.00 | 41 | 1011.7 |
| 20260502004648 | 51 | 264 | 9.0 | 11.0 | 0.00 | 0.00 | 0.00 | 41 | 1011.9 |
| 20260502003748 | 51 | 258 | 10.0 | 13.0 | 0.00 | 0.00 | 0.00 | 41 | 1011.9 |
| 20260502002848 | 51 | 283 | 9.0 | 11.0 | 0.00 | 0.00 | 0.00 | 41 | 1012.0 |
| 20260502001949 | 51 | 271 | 9.0 | 11.0 | 0.00 | 0.00 | 0.00 | 41 | 1012.1 |
| 20260502000149 | 51 | 283 | 9.0 | 11.0 | 0.00 | 0.00 | 0.00 | 41 | 1012.3 |
| 20260501235248 | 51 | 297 | 8.0 | 11.0 | 0.00 | 0.00 | 0.00 | 41 | 1012.2 |
| 20260501234348 | 52 | 259 | 10.0 | 11.0 | 0.00 | 0.00 | 0.00 | 40 | 1012.5 |
| 20260501232548 | 52 | 268 | 10.0 | 11.0 | 0.00 | 0.00 | 0.00 | 41 | 1012.4 |